VOE57FK LFLL-LFKJ

Flight info

Callsign VOE57FK
Flight time 0h 56m
Altitude 33000
Route ROMAM T43 BEPER DCT RETNO DCT KOLON DCT OMARD M623 VAREK
Aircraft A319/M-SDFGHIJ1RWY/LB1

Departure

Time 2026-04-24 21:09
Airport Lyon Saint-Exupéry Airport (LFLL)

Arrival

Time 2026-04-24 22:05
Airport Ajaccio Napoléon Bonaparte airport (LFKJ)
Time Latitude Longitude Altitude Speed Heading
2026-04-24 20:42 45.71797 5.08036 797 ft 0 kts 336°
2026-04-24 20:57 45.71783 5.08044 796 ft 4 kts 333°
2026-04-24 20:57 45.71759 5.08062 797 ft 4 kts 330°
2026-04-24 20:58 45.71736 5.08081 797 ft 4 kts 338°
2026-04-24 20:58 45.71714 5.08087 798 ft 1 kts 18°
2026-04-24 21:02 45.71716 5.08088 798 ft 1 kts 20°
2026-04-24 21:02 45.71719 5.08092 798 ft 0 kts 32°
2026-04-24 21:03 45.71722 5.08094 798 ft 1 kts 32°
2026-04-24 21:03 45.71735 5.08107 798 ft 4 kts 33°
2026-04-24 21:03 45.71765 5.08134 797 ft 7 kts 31°
2026-04-24 21:03 45.71813 5.08170 797 ft 8 kts 26°
2026-04-24 21:04 45.71867 5.08202 797 ft 9 kts 17°
2026-04-24 21:04 45.71929 5.08224 797 ft 10 kts 14°
2026-04-24 21:04 45.71969 5.08279 798 ft 8 kts 82°
2026-04-24 21:04 45.71963 5.08349 799 ft 7 kts 105°
2026-04-24 21:05 45.71952 5.08409 800 ft 5 kts 105°
2026-04-24 21:05 45.71950 5.08418 801 ft 0 kts 105°
2026-04-24 21:05 45.71949 5.08427 801 ft 1 kts 105°
2026-04-24 21:05 45.71946 5.08443 801 ft 2 kts 103°
2026-04-24 21:06 45.71944 5.08479 802 ft 5 kts 92°
2026-04-24 21:06 45.71945 5.08539 804 ft 7 kts 87°
2026-04-24 21:06 45.71949 5.08623 806 ft 10 kts 85°
2026-04-24 21:06 45.71956 5.08722 809 ft 9 kts 83°
2026-04-24 21:07 45.71963 5.08808 811 ft 8 kts 84°
2026-04-24 21:07 45.71972 5.08892 811 ft 9 kts 69°
2026-04-24 21:07 45.72027 5.08919 810 ft 10 kts 354°
2026-04-24 21:07 45.72060 5.08915 810 ft 0 kts 355°
2026-04-24 21:08 45.72105 5.08909 808 ft 33 kts 355°
2026-04-24 21:08 45.72611 5.08848 792 ft 108 kts 355°
2026-04-24 21:08 45.73560 5.08734 809 ft 160 kts 356°
2026-04-24 21:08 45.74672 5.08641 1398 ft 162 kts 358°
2026-04-24 21:09 45.75820 5.08539 2009 ft 168 kts 356°
2026-04-24 21:09 45.77004 5.08415 2619 ft 177 kts 356°
2026-04-24 21:09 45.78326 5.08267 2917 ft 202 kts 355°
2026-04-24 21:09 45.79812 5.08088 3251 ft 227 kts 355°
2026-04-24 21:10 45.81446 5.07870 3893 ft 241 kts 356°
2026-04-24 21:10 45.83099 5.08279 4712 ft 248 kts 29°
2026-04-24 21:10 45.84273 5.10059 5576 ft 252 kts 67°
2026-04-24 21:10 45.84467 5.12525 6437 ft 255 kts 103°
2026-04-24 21:11 45.83587 5.14703 7309 ft 258 kts 140°
2026-04-24 21:11 45.81985 5.15841 8168 ft 261 kts 169°
2026-04-24 21:11 45.80198 5.16219 9018 ft 265 kts 167°
2026-04-24 21:11 45.78428 5.17020 9866 ft 268 kts 162°
2026-04-24 21:12 45.76644 5.17871 10707 ft 272 kts 162°
2026-04-24 21:12 45.74839 5.18735 11516 ft 276 kts 162°
2026-04-24 21:12 45.73010 5.19615 12325 ft 279 kts 163°
2026-04-24 21:12 45.71108 5.20177 13109 ft 282 kts 176°
2026-04-24 21:13 45.69079 5.20144 13413 ft 304 kts 184°
2026-04-24 21:13 45.66887 5.19992 13632 ft 327 kts 184°
2026-04-24 21:13 45.64558 5.19826 14084 ft 340 kts 184°
2026-04-24 21:13 45.62176 5.19662 14765 ft 345 kts 183°
2026-04-24 21:14 45.59772 5.19499 15482 ft 348 kts 183°
2026-04-24 21:14 45.57345 5.19339 16205 ft 350 kts 183°
2026-04-24 21:14 45.54932 5.19182 16881 ft 353 kts 183°
2026-04-24 21:14 45.52469 5.19025 17555 ft 356 kts 183°
2026-04-24 21:15 45.49987 5.18868 18219 ft 359 kts 184°
2026-04-24 21:15 45.47485 5.18710 18875 ft 361 kts 183°
2026-04-24 21:15 45.44962 5.18550 19493 ft 365 kts 183°
2026-04-24 21:15 45.42415 5.18386 20078 ft 369 kts 184°
2026-04-24 21:16 45.39840 5.18219 20646 ft 373 kts 183°
2026-04-24 21:16 45.37236 5.18051 21222 ft 376 kts 183°
2026-04-24 21:16 45.34607 5.17886 21764 ft 380 kts 183°
2026-04-24 21:16 45.31954 5.17719 22303 ft 384 kts 183°
2026-04-24 21:17 45.29311 5.17554 22828 ft 387 kts 183°
2026-04-24 21:17 45.26606 5.17385 23334 ft 391 kts 183°
2026-04-24 21:17 45.23875 5.17212 23813 ft 395 kts 183°
2026-04-24 21:17 45.21119 5.17035 24284 ft 398 kts 183°
2026-04-24 21:18 45.18340 5.16856 24741 ft 402 kts 183°
2026-04-24 21:18 45.15535 5.16677 25173 ft 405 kts 183°
2026-04-24 21:18 45.12709 5.16497 25606 ft 408 kts 183°
2026-04-24 21:18 45.09861 5.16399 26025 ft 412 kts 178°
2026-04-24 21:19 45.06989 5.16704 26420 ft 415 kts 176°
2026-04-24 21:19 45.04104 5.17035 26822 ft 418 kts 176°
2026-04-24 21:19 45.01197 5.17360 27217 ft 421 kts 176°
2026-04-24 21:19 44.98306 5.17677 27579 ft 423 kts 176°
2026-04-24 21:20 44.92391 5.18332 28328 ft 430 kts 176°
2026-04-24 21:20 44.89401 5.18664 28697 ft 432 kts 176°
2026-04-24 21:20 44.86393 5.19000 29047 ft 435 kts 176°
2026-04-24 21:21 44.83365 5.19336 29397 ft 438 kts 176°
2026-04-24 21:21 44.80323 5.19671 29739 ft 440 kts 176°
2026-04-24 21:21 44.77261 5.20010 30073 ft 443 kts 176°
2026-04-24 21:21 44.74182 5.20351 30396 ft 445 kts 176°
2026-04-24 21:22 44.71090 5.20696 30717 ft 447 kts 175°
2026-04-24 21:22 44.68014 5.21419 31026 ft 450 kts 166°
2026-04-24 21:22 44.65053 5.22887 31335 ft 453 kts 155°
2026-04-24 21:22 44.62344 5.25031 31634 ft 455 kts 146°
2026-04-24 21:23 44.59900 5.27850 31996 ft 455 kts 135°
2026-04-24 21:23 44.57772 5.31129 32425 ft 454 kts 131°
2026-04-24 21:23 44.55691 5.34436 32858 ft 452 kts 131°
2026-04-24 21:23 44.53607 5.37735 33068 ft 451 kts 131°
2026-04-24 21:24 44.51547 5.40992 33117 ft 440 kts 132°
2026-04-24 21:24 44.47560 5.47282 33118 ft 427 kts 131°
2026-04-24 21:25 44.43632 5.53471 33119 ft 425 kts 131°
2026-04-24 21:25 44.41315 5.57116 33123 ft 424 kts 131°
2026-04-24 21:26 44.37495 5.63385 33130 ft 423 kts 124°
2026-04-24 21:26 44.34209 5.70211 33128 ft 423 kts 124°
2026-04-24 21:27 44.30903 5.77008 33127 ft 423 kts 124°
2026-04-24 21:27 44.27596 5.83791 33128 ft 422 kts 124°
2026-04-24 21:28 44.24316 5.90511 33124 ft 422 kts 124°
2026-04-24 21:28 44.21013 5.97261 33124 ft 421 kts 124°
2026-04-24 21:29 44.17710 6.03999 33116 ft 421 kts 124°
2026-04-24 21:29 44.14408 6.10730 33109 ft 421 kts 124°
2026-04-24 21:30 44.11101 6.17452 33105 ft 421 kts 124°
2026-04-24 21:30 44.07792 6.24159 33105 ft 420 kts 124°
2026-04-24 21:31 44.04498 6.30813 33105 ft 421 kts 124°
2026-04-24 21:31 44.01177 6.37504 33105 ft 421 kts 124°
2026-04-24 21:32 43.97856 6.44190 33099 ft 420 kts 124°
2026-04-24 21:32 43.94526 6.50870 33094 ft 420 kts 124°
2026-04-24 21:33 43.91198 6.57539 33090 ft 420 kts 124°
2026-04-24 21:33 43.87888 6.64158 33087 ft 420 kts 124°
2026-04-24 21:34 43.84583 6.70758 33083 ft 420 kts 124°
2026-04-24 21:34 43.81246 6.77411 33081 ft 420 kts 124°
2026-04-24 21:35 43.77904 6.84050 33080 ft 420 kts 124°
2026-04-24 21:35 43.74546 6.90673 33080 ft 420 kts 124°
2026-04-24 21:36 43.70754 6.96791 33104 ft 422 kts 139°
2026-04-24 21:36 43.66088 7.01706 33100 ft 422 kts 142°
2026-04-24 21:37 43.61402 7.06587 33092 ft 422 kts 142°
2026-04-24 21:37 43.56756 7.11439 33090 ft 422 kts 141°
2026-04-24 21:38 43.52070 7.16320 33093 ft 422 kts 142°
2026-04-24 21:38 43.47381 7.21183 33091 ft 422 kts 142°
2026-04-24 21:39 43.42688 7.26027 33091 ft 422 kts 142°
2026-04-24 21:39 43.37991 7.30869 33094 ft 422 kts 142°
2026-04-24 21:40 43.33299 7.35712 33102 ft 422 kts 141°
2026-04-24 21:40 43.28631 7.40524 33105 ft 422 kts 141°
2026-04-24 21:41 43.23932 7.45353 33106 ft 422 kts 142°
2026-04-24 21:41 43.19226 7.50173 33109 ft 422 kts 142°
2026-04-24 21:42 43.14513 7.54974 33110 ft 422 kts 142°
2026-04-24 21:42 43.09618 7.59412 33109 ft 424 kts 153°
2026-04-24 21:43 43.04094 7.62297 33109 ft 425 kts 158°
2026-04-24 21:43 42.98531 7.65051 33108 ft 425 kts 158°
2026-04-24 21:44 42.93002 7.67789 33109 ft 426 kts 158°
2026-04-24 21:44 42.87379 7.70577 32530 ft 438 kts 158°
2026-04-24 21:44 42.84493 7.72003 31761 ft 441 kts 158°
2026-04-24 21:45 42.81631 7.73419 31265 ft 436 kts 158°
2026-04-24 21:45 42.78791 7.74821 30715 ft 433 kts 158°
2026-04-24 21:45 42.75969 7.76211 30179 ft 429 kts 158°
2026-04-24 21:45 42.73174 7.77587 29657 ft 426 kts 158°
2026-04-24 21:46 42.70396 7.78951 29132 ft 423 kts 158°
2026-04-24 21:46 42.67643 7.80299 28615 ft 419 kts 158°
2026-04-24 21:46 42.64947 7.81618 28114 ft 415 kts 158°
2026-04-24 21:46 42.62240 7.82947 27622 ft 412 kts 158°
2026-04-24 21:47 42.59559 7.84264 27136 ft 408 kts 158°
2026-04-24 21:47 42.57793 7.85132 26825 ft 406 kts 158°
2026-04-24 21:47 42.54260 7.86867 26199 ft 402 kts 158°
2026-04-24 21:47 42.51642 7.88153 25741 ft 399 kts 158°
2026-04-24 21:48 42.49040 7.89426 25289 ft 396 kts 158°
2026-04-24 21:48 42.46455 7.90685 24829 ft 393 kts 158°
2026-04-24 21:48 42.43890 7.91933 24371 ft 391 kts 158°
2026-04-24 21:48 42.41338 7.93176 23897 ft 388 kts 158°
2026-04-24 21:49 42.38840 7.94394 23432 ft 386 kts 158°
2026-04-24 21:49 42.36322 7.95623 22960 ft 384 kts 158°
2026-04-24 21:49 42.33821 7.96842 22481 ft 381 kts 157°
2026-04-24 21:49 42.31441 7.98368 22016 ft 376 kts 146°
2026-04-24 21:50 42.29357 8.00451 21564 ft 370 kts 135°
2026-04-24 21:50 42.27468 8.02788 21104 ft 367 kts 135°
2026-04-24 21:50 42.25585 8.05105 20643 ft 365 kts 135°
2026-04-24 21:50 42.23711 8.07398 20185 ft 362 kts 135°
2026-04-24 21:51 42.21853 8.09669 19733 ft 359 kts 135°
2026-04-24 21:51 42.20006 8.11922 19282 ft 357 kts 135°
2026-04-24 21:51 42.18195 8.14127 18849 ft 354 kts 135°
2026-04-24 21:51 42.16373 8.16347 18403 ft 351 kts 135°
2026-04-24 21:52 42.14568 8.18549 17972 ft 348 kts 135°
2026-04-24 21:52 42.12779 8.20734 17541 ft 346 kts 135°
2026-04-24 21:52 42.11002 8.22898 17115 ft 344 kts 135°
2026-04-24 21:52 42.09234 8.25049 16698 ft 341 kts 135°
2026-04-24 21:53 42.07479 8.27183 16283 ft 339 kts 135°
2026-04-24 21:53 42.05734 8.29308 15873 ft 337 kts 135°
2026-04-24 21:53 42.04002 8.31417 15466 ft 335 kts 135°
2026-04-24 21:53 42.02274 8.33517 15057 ft 334 kts 135°
2026-04-24 21:54 42.00577 8.35578 14656 ft 332 kts 136°
2026-04-24 21:54 41.98866 8.37651 14249 ft 331 kts 136°
2026-04-24 21:54 41.97144 8.39692 13836 ft 330 kts 140°
2026-04-24 21:54 41.95174 8.41265 13428 ft 331 kts 155°
2026-04-24 21:55 41.92969 8.42128 12997 ft 332 kts 170°
2026-04-24 21:55 41.90663 8.42228 12565 ft 332 kts 182°
2026-04-24 21:55 41.88361 8.42051 12123 ft 331 kts 182°
2026-04-24 21:55 41.86064 8.41874 11675 ft 330 kts 182°
2026-04-24 21:56 41.83777 8.41701 11235 ft 328 kts 182°
2026-04-24 21:56 41.81500 8.41528 10786 ft 327 kts 182°
2026-04-24 21:56 41.79233 8.41358 10343 ft 326 kts 182°
2026-04-24 21:56 41.77034 8.41195 10192 ft 314 kts 182°
2026-04-24 21:57 41.74897 8.41036 10051 ft 303 kts 182°
2026-04-24 21:57 41.72807 8.40880 9692 ft 300 kts 182°
2026-04-24 21:57 41.70724 8.40722 9343 ft 297 kts 182°
2026-04-24 21:57 41.68668 8.40641 8968 ft 295 kts 174°
2026-04-24 21:58 41.66699 8.41300 8567 ft 292 kts 155°
2026-04-24 21:58 41.65016 8.42768 8161 ft 289 kts 136°
2026-04-24 21:58 41.63791 8.44868 7737 ft 286 kts 117°
2026-04-24 21:58 41.63159 8.47368 7321 ft 284 kts 97°
2026-04-24 21:59 41.63197 8.49974 6889 ft 281 kts 77°
2026-04-24 21:59 41.63894 8.52383 6429 ft 278 kts 58°
2026-04-24 21:59 41.64978 8.54498 5774 ft 284 kts 54°
2026-04-24 21:59 41.66128 8.56688 5019 ft 290 kts 54°
2026-04-24 22:00 41.67272 8.58868 4558 ft 279 kts 54°
2026-04-24 22:00 41.68341 8.60912 4393 ft 257 kts 54°
2026-04-24 22:00 41.69324 8.62798 4287 ft 237 kts 54°
2026-04-24 22:00 41.70243 8.64559 4183 ft 225 kts 54°
2026-04-24 22:01 41.71129 8.66252 4087 ft 220 kts 53°
2026-04-24 22:01 41.72208 8.67668 3964 ft 219 kts 31°
2026-04-24 22:01 41.73561 8.68586 3688 ft 217 kts 23°
2026-04-24 22:01 41.74932 8.69408 3494 ft 216 kts 24°
2026-04-24 22:02 41.76300 8.70245 3227 ft 215 kts 23°
2026-04-24 22:02 41.77657 8.71085 2945 ft 215 kts 24°
2026-04-24 22:02 41.78995 8.71914 2670 ft 215 kts 24°
2026-04-24 22:02 41.80367 8.72766 2378 ft 217 kts 24°
2026-04-24 22:03 41.81722 8.73607 2101 ft 212 kts 24°
2026-04-24 22:03 41.83044 8.74427 1855 ft 207 kts 25°
2026-04-24 22:03 41.84331 8.75227 1545 ft 200 kts 25°
2026-04-24 22:03 41.85551 8.75985 1272 ft 186 kts 25°
2026-04-24 22:04 41.86669 8.76681 1043 ft 170 kts 25°
2026-04-24 22:04 41.87706 8.77324 814 ft 159 kts 25°
2026-04-24 22:04 41.88679 8.77933 611 ft 149 kts 26°
2026-04-24 22:04 41.89590 8.78512 420 ft 141 kts 25°
2026-04-24 22:05 41.90464 8.79045 221 ft 135 kts 25°
2026-04-24 22:05 41.91309 8.79572 51 ft 133 kts 26°
2026-04-24 22:05 41.92053 8.80039 19 ft 85 kts 24°
2026-04-24 22:05 41.92361 8.80227 21 ft 15 kts 24°
2026-04-24 22:06 41.92388 8.80194 22 ft 4 kts 269°
2026-04-24 22:06 41.92390 8.80143 22 ft 8 kts 275°
2026-04-24 22:06 41.92397 8.80064 23 ft 8 kts 277°
2026-04-24 22:06 41.92402 8.80002 25 ft 5 kts 277°
2026-04-24 22:07 41.92406 8.79967 26 ft 5 kts 276°
2026-04-24 22:07 41.92381 8.79906 26 ft 10 kts 216°
2026-04-24 22:07 41.92306 8.79861 26 ft 13 kts 203°
2026-04-24 22:07 41.92224 8.79811 27 ft 13 kts 205°
2026-04-24 22:08 41.92137 8.79757 26 ft 14 kts 205°
2026-04-24 22:08 41.92053 8.79704 26 ft 11 kts 205°
2026-04-24 22:08 41.92004 8.79673 26 ft 5 kts 205°
2026-04-24 22:08 41.91971 8.79652 26 ft 1 kts 210°
2026-04-24 22:09 41.91970 8.79651 26 ft 1 kts 206°
2026-04-24 22:09 41.91962 8.79646 30 ft 2 kts 205°
2026-04-24 22:09 41.91942 8.79633 26 ft 5 kts 211°
2026-04-24 22:10 41.91939 8.79591 26 ft 6 kts 296°
2026-04-24 22:10 41.91962 8.79575 26 ft 0 kts 347°